Location: Bun Machan
(52.1403°N, 7.3744°W)
Time: 02:54:43
(UTC+00:00)

USA 215 - Pass Details

Date: 14 July 2020
Orbit: 1102 x 1106 km, 123.0° (Epoch: 31 July)

Event Time Altitude Azimuth Distance (km) Brightness Sun altitude
Rises 01:36:10 0° 67° (ENE) 3,926 6.7 -15.0°
Reaches altitude 10° 01:38:40 10° 65° (ENE) 2,966 6.1 -14.9°
Maximum altitude 01:45:09 68° 345° (NNW) 1,183 3.6 -14.7°
Drops below altitude 10° 01:51:38 10° 264° (W) 2,961 5.3 -14.4°
Sets 01:54:07 0° 262° (W) 3,918 5.9 -14.3°
